McCook, NE

8:45 PM CST on January 20, 2017 (GMT -0600)
McCook Municipal

Weather History for KMCK - September, 2013

Change the Weather History Date:

Monday, September 16, 2013

  Actual Average Record
Temperature  
Mean Temperature 60 °F 64 °F  
Max Temperature 63 °F 79 °F 98 °F (1955)
Min Temperature 56 °F 49 °F 38 °F (1951)
Degree Days  
Heating Degree Days 8    
Growing Degree Days 8 (Base 50)    
Moisture  
Dew Point 53 °F    
Average Humidity 86    
Maximum Humidity 100    
Minimum Humidity 80    
Precipitation  
Precipitation 0.00 in 0.04 in 0.95 in (1964)
Month to date precipitation 1.03 0.78  
Year to date precipitation 10.20 18.49  
Sea Level Pressure  
Sea Level Pressure 30.23 in    
Wind  
Wind Speed 9 mph (ESE)    
Max Wind Speed 13 mph    
Max Gust Speed -    
Visibility 10 miles    
Events      
T = Trace of Precipitation, MM = Missing Value Source: NWS Daily Summary

Daily Weather History Graph

Daily Weather History Graph

Search for Another Location

Airport or City:

Trip Planner

Search our weather history database for the weather conditions in past years. The results will help you decide how hot, cold, wet, or windy it might be!

Date:

Astronomy

Sep. 16, 2013 Rise Set
Actual Time 7:24 AM CDT 7:49 PM CDT
Civil Twilight 6:57 AM CDT 8:16 PM CDT
Nautical Twilight 6:25 AM CDT 8:48 PM CDT
Astronomical Twilight 5:52 AM CDT 9:20 PM CDT
Moon 5:59 PM CDT (9/16) 4:12 AM CDT (9/16)
Length of Visible Light 13h 18m
Length of Day
12h 24m
Waxing Gibbous, 90% of the Moon is Illuminated
Sep 16
Waxing Gibbous
Sep 19
Full
Sep 26
Last Quarter
Oct 4
New
Oct 11
First Quarter

Hourly Weather History & Observations

Time (CDT) Temp. Dew Point Humidity Pressure Visibility Wind Dir Wind Speed Gust Speed Precip Events Conditions
12:53 AM 60.1 °F 54.0 °F 80% 30.25 in 10.0 mi NE 9.2 mph - N/A   Overcast
1:53 AM 59.0 °F 53.1 °F 81% 30.25 in 10.0 mi ENE 12.7 mph - N/A   Overcast
2:53 AM 59.0 °F 53.1 °F 81% 30.25 in 10.0 mi ENE 11.5 mph - N/A   Overcast
3:53 AM 57.9 °F 53.1 °F 84% 30.24 in 10.0 mi ENE 11.5 mph - N/A   Overcast
4:53 AM 57.0 °F 52.0 °F 83% 30.25 in 10.0 mi East 10.4 mph - N/A   Overcast
5:44 AM 57.2 °F 51.8 °F 82% 30.28 in 10.0 mi East 10.4 mph - N/A   Overcast
5:53 AM 57.0 °F 52.0 °F 83% 30.25 in 10.0 mi ENE 9.2 mph - N/A   Overcast
6:08 AM 57.2 °F 51.8 °F 82% 30.28 in 10.0 mi East 10.4 mph - N/A   Overcast
6:53 AM 57.0 °F 51.1 °F 81% 30.26 in 10.0 mi East 6.9 mph - N/A   Overcast
7:05 AM 57.2 °F 51.8 °F 82% 30.29 in 10.0 mi East 8.1 mph - N/A   Overcast
7:53 AM 55.9 °F 52.0 °F 87% 30.27 in 10.0 mi East 9.2 mph - N/A   Overcast
8:53 AM 55.9 °F 52.0 °F 87% 30.28 in 8.0 mi East 8.1 mph - N/A   Overcast
9:07 AM 55.4 °F 51.8 °F 88% 30.30 in 8.0 mi East 6.9 mph - N/A   Overcast
9:53 AM 57.0 °F 53.1 °F 87% 30.27 in 8.0 mi East 6.9 mph - N/A   Overcast
10:53 AM 55.9 °F 52.0 °F 87% 30.27 in 9.0 mi East 11.5 mph - N/A   Overcast
11:17 AM 57.2 °F 53.6 °F 88% 30.29 in 10.0 mi East 10.4 mph - N/A   Overcast
11:53 AM 57.9 °F 52.0 °F 81% 30.26 in 10.0 mi East 9.2 mph - N/A   Overcast
12:53 PM 57.0 °F 52.0 °F 83% 30.26 in 10.0 mi ESE 8.1 mph - N/A   Overcast
1:53 PM 57.9 °F 52.0 °F 81% 30.24 in 10.0 mi ESE 10.4 mph - N/A   Overcast
2:53 PM 57.9 °F 52.0 °F 81% 30.22 in 10.0 mi East 8.1 mph - N/A   Overcast
3:53 PM 57.9 °F 52.0 °F 81% 30.21 in 10.0 mi SE 8.1 mph - N/A   Overcast
4:53 PM 57.9 °F 53.1 °F 84% 30.19 in 10.0 mi SSE 5.8 mph - N/A   Overcast
5:53 PM 57.0 °F 53.1 °F 87% 30.18 in 10.0 mi ESE 8.1 mph - N/A   Overcast
6:53 PM 57.0 °F 53.1 °F 87% 30.17 in 10.0 mi ESE 6.9 mph - N/A   Overcast
7:53 PM 57.0 °F 53.1 °F 87% 30.15 in 10.0 mi SE 5.8 mph - N/A   Overcast
8:53 PM 57.0 °F 53.1 °F 87% 30.16 in 10.0 mi SE 6.9 mph - N/A   Overcast
9:53 PM 57.0 °F 54.0 °F 89% 30.16 in 10.0 mi SSE 9.2 mph - N/A   Overcast
10:53 PM 55.9 °F 54.0 °F 93% 30.16 in 7.0 mi SSE 11.5 mph - N/A   Overcast
11:02 PM 55.4 °F 55.4 °F 100% 30.17 in 8.0 mi SSE 9.2 mph - N/A   Overcast
11:49 PM 57.2 °F 55.4 °F 94% 30.16 in 10.0 mi SSE 10.4 mph - N/A   Overcast
11:53 PM 57.0 °F 55.0 °F 93% 30.14 in 10.0 mi SSE 9.2 mph - N/A   Overcast